<?xml version="1.0" encoding="UTF-8" standalone="no" ?>
<gpx xmlns="http://www.topografix.com/GPX/1/1" xmlns:xsi="http://www.w3.org/2001/XMLSchema-instance" xsi:schemaLocation="http://www.topografix.com/GPX/1/1 http://www.topografix.com/GPX/1/1/gpx.xsd" version="1.1" creator="VisuGPX - https://www.visugpx.com">
  <metadata>
    <name>GR738 - Jour 3 - Refuge des Férices au Refuge de l'Aup Bernard </name>
    <desc><![CDATA[Steve Farrugia (5891488)]]></desc>
  </metadata>
  <trk>
    <name><![CDATA[Steve Farrugia (5891488)]]></name>
    <desc><![CDATA[Steve Farrugia (5891488)]]></desc>
    <extensions>
      <line xmlns="http://www.topografix.com/GPX/gpx_style/0/2">
        <color>0000FF</color>
        <width>4</width>
      </line>
    </extensions>
    <trkseg>
      <trkpt lat="45.37197" lon="6.19414">
        <ele>1912.57</ele>
        <time>2022-07-18T06:56:00Z</time>
      </trkpt>
      <trkpt lat="45.37197" lon="6.19416">
        <ele>1912</ele>
        <time>2022-07-18T06:56:01Z</time>
      </trkpt>
      <trkpt lat="45.37197" lon="6.19416">
        <ele>1912</ele>
        <time>2022-07-18T06:56:02Z</time>
      </trkpt>
      <trkpt lat="45.37194" lon="6.19419">
        <ele>1912.57</ele>
        <time>2022-07-18T06:58:00Z</time>
      </trkpt>
      <trkpt lat="45.37194" lon="6.19419">
        <ele>1913</ele>
        <time>2022-07-18T06:58:02Z</time>
      </trkpt>
      <trkpt lat="45.37202" lon="6.1938">
        <ele>1907</ele>
        <time>2022-07-18T06:58:53Z</time>
      </trkpt>
      <trkpt lat="45.37161" lon="6.19348">
        <ele>1900</ele>
        <time>2022-07-18T06:59:53Z</time>
      </trkpt>
      <trkpt lat="45.37115" lon="6.19314">
        <ele>1894.74</ele>
        <time>2022-07-18T07:00:45Z</time>
      </trkpt>
      <trkpt lat="45.37116" lon="6.19314">
        <ele>1896</ele>
        <time>2022-07-18T07:00:52Z</time>
      </trkpt>
      <trkpt lat="45.37116" lon="6.19314">
        <ele>1896</ele>
        <time>2022-07-18T07:00:52Z</time>
      </trkpt>
      <trkpt lat="45.37064" lon="6.1928">
        <ele>1888</ele>
        <time>2022-07-18T07:01:51Z</time>
      </trkpt>
      <trkpt lat="45.3707" lon="6.19236">
        <ele>1884.58</ele>
        <time>2022-07-18T07:02:45Z</time>
      </trkpt>
      <trkpt lat="45.3707" lon="6.19237">
        <ele>1885</ele>
        <time>2022-07-18T07:02:51Z</time>
      </trkpt>
      <trkpt lat="45.37071" lon="6.19237">
        <ele>1885</ele>
        <time>2022-07-18T07:02:53Z</time>
      </trkpt>
      <trkpt lat="45.3708" lon="6.19206">
        <ele>1874</ele>
        <time>2022-07-18T07:03:50Z</time>
      </trkpt>
      <trkpt lat="45.37079" lon="6.19161">
        <ele>1860</ele>
        <time>2022-07-18T07:04:49Z</time>
      </trkpt>
      <trkpt lat="45.37073" lon="6.19125">
        <ele>1844</ele>
        <time>2022-07-18T07:05:48Z</time>
      </trkpt>
      <trkpt lat="45.37093" lon="6.19101">
        <ele>1835</ele>
        <time>2022-07-18T07:06:45Z</time>
      </trkpt>
      <trkpt lat="45.37093" lon="6.19101">
        <ele>1836.51</ele>
        <time>2022-07-18T07:06:45Z</time>
      </trkpt>
      <trkpt lat="45.37091" lon="6.191">
        <ele>1834</ele>
        <time>2022-07-18T07:06:48Z</time>
      </trkpt>
      <trkpt lat="45.37117" lon="6.19096">
        <ele>1820</ele>
        <time>2022-07-18T07:07:47Z</time>
      </trkpt>
      <trkpt lat="45.37152" lon="6.19125">
        <ele>1808.85</ele>
        <time>2022-07-18T07:08:45Z</time>
      </trkpt>
      <trkpt lat="45.37153" lon="6.19126">
        <ele>1807</ele>
        <time>2022-07-18T07:08:46Z</time>
      </trkpt>
      <trkpt lat="45.37152" lon="6.19126">
        <ele>1808</ele>
        <time>2022-07-18T07:08:46Z</time>
      </trkpt>
      <trkpt lat="45.37183" lon="6.19126">
        <ele>1795</ele>
        <time>2022-07-18T07:09:46Z</time>
      </trkpt>
      <trkpt lat="45.37199" lon="6.19095">
        <ele>1782</ele>
        <time>2022-07-18T07:10:45Z</time>
      </trkpt>
      <trkpt lat="45.37203" lon="6.1904">
        <ele>1771</ele>
        <time>2022-07-18T07:11:44Z</time>
      </trkpt>
      <trkpt lat="45.37243" lon="6.19007">
        <ele>1766.32</ele>
        <time>2022-07-18T07:12:30Z</time>
      </trkpt>
      <trkpt lat="45.37244" lon="6.19009">
        <ele>1765</ele>
        <time>2022-07-18T07:12:41Z</time>
      </trkpt>
      <trkpt lat="45.37247" lon="6.19009">
        <ele>1756</ele>
        <time>2022-07-18T07:12:45Z</time>
      </trkpt>
      <trkpt lat="45.37265" lon="6.18932">
        <ele>1721.58</ele>
        <time>2022-07-18T07:14:30Z</time>
      </trkpt>
      <trkpt lat="45.37265" lon="6.18937">
        <ele>1725</ele>
        <time>2022-07-18T07:14:35Z</time>
      </trkpt>
      <trkpt lat="45.37265" lon="6.18933">
        <ele>1723</ele>
        <time>2022-07-18T07:14:42Z</time>
      </trkpt>
      <trkpt lat="45.373" lon="6.18931">
        <ele>1710</ele>
        <time>2022-07-18T07:15:37Z</time>
      </trkpt>
      <trkpt lat="45.37324" lon="6.18913">
        <ele>1698</ele>
        <time>2022-07-18T07:16:37Z</time>
      </trkpt>
      <trkpt lat="45.37351" lon="6.18968">
        <ele>1696.86</ele>
        <time>2022-07-18T07:17:30Z</time>
      </trkpt>
      <trkpt lat="45.3735" lon="6.18965">
        <ele>1698</ele>
        <time>2022-07-18T07:17:36Z</time>
      </trkpt>
      <trkpt lat="45.37352" lon="6.1897">
        <ele>1697</ele>
        <time>2022-07-18T07:17:40Z</time>
      </trkpt>
      <trkpt lat="45.37383" lon="6.19001">
        <ele>1685</ele>
        <time>2022-07-18T07:18:39Z</time>
      </trkpt>
      <trkpt lat="45.37401" lon="6.18992">
        <ele>1674.68</ele>
        <time>2022-07-18T07:19:45Z</time>
      </trkpt>
      <trkpt lat="45.37401" lon="6.18992">
        <ele>1675</ele>
        <time>2022-07-18T07:19:47Z</time>
      </trkpt>
      <trkpt lat="45.37401" lon="6.18992">
        <ele>1675</ele>
        <time>2022-07-18T07:19:48Z</time>
      </trkpt>
      <trkpt lat="45.37429" lon="6.18991">
        <ele>1663</ele>
        <time>2022-07-18T07:21:30Z</time>
      </trkpt>
      <trkpt lat="45.37486" lon="6.18937">
        <ele>1625</ele>
        <time>2022-07-18T07:23:29Z</time>
      </trkpt>
      <trkpt lat="45.37486" lon="6.18937">
        <ele>1625</ele>
        <time>2022-07-18T07:23:30Z</time>
      </trkpt>
      <trkpt lat="45.37484" lon="6.18936">
        <ele>1625.68</ele>
        <time>2022-07-18T07:23:30Z</time>
      </trkpt>
      <trkpt lat="45.37506" lon="6.18959">
        <ele>1620</ele>
        <time>2022-07-18T07:24:28Z</time>
      </trkpt>
      <trkpt lat="45.37547" lon="6.18974">
        <ele>1613</ele>
        <time>2022-07-18T07:25:27Z</time>
      </trkpt>
      <trkpt lat="45.37551" lon="6.18973">
        <ele>1612</ele>
        <time>2022-07-18T07:25:30Z</time>
      </trkpt>
      <trkpt lat="45.3755" lon="6.18972">
        <ele>1613.48</ele>
        <time>2022-07-18T07:25:30Z</time>
      </trkpt>
      <trkpt lat="45.37582" lon="6.18969">
        <ele>1606</ele>
        <time>2022-07-18T07:26:26Z</time>
      </trkpt>
      <trkpt lat="45.37602" lon="6.18935">
        <ele>1590</ele>
        <time>2022-07-18T07:27:25Z</time>
      </trkpt>
      <trkpt lat="45.37628" lon="6.18906">
        <ele>1579.45</ele>
        <time>2022-07-18T07:28:15Z</time>
      </trkpt>
      <trkpt lat="45.37628" lon="6.18907">
        <ele>1579</ele>
        <time>2022-07-18T07:28:20Z</time>
      </trkpt>
      <trkpt lat="45.37662" lon="6.18905">
        <ele>1568</ele>
        <time>2022-07-18T07:29:17Z</time>
      </trkpt>
      <trkpt lat="45.37684" lon="6.18863">
        <ele>1552.83</ele>
        <time>2022-07-18T07:30:15Z</time>
      </trkpt>
      <trkpt lat="45.37682" lon="6.18866">
        <ele>1555</ele>
        <time>2022-07-18T07:30:17Z</time>
      </trkpt>
      <trkpt lat="45.37685" lon="6.18863">
        <ele>1554</ele>
        <time>2022-07-18T07:30:21Z</time>
      </trkpt>
      <trkpt lat="45.37709" lon="6.1882">
        <ele>1541</ele>
        <time>2022-07-18T07:31:17Z</time>
      </trkpt>
      <trkpt lat="45.37738" lon="6.18797">
        <ele>1530</ele>
        <time>2022-07-18T07:32:16Z</time>
      </trkpt>
      <trkpt lat="45.37771" lon="6.18769">
        <ele>1521.51</ele>
        <time>2022-07-18T07:33:00Z</time>
      </trkpt>
      <trkpt lat="45.37771" lon="6.18769">
        <ele>1522</ele>
        <time>2022-07-18T07:33:12Z</time>
      </trkpt>
      <trkpt lat="45.37774" lon="6.18766">
        <ele>1521</ele>
        <time>2022-07-18T07:33:15Z</time>
      </trkpt>
      <trkpt lat="45.378" lon="6.18722">
        <ele>1510</ele>
        <time>2022-07-18T07:34:18Z</time>
      </trkpt>
      <trkpt lat="45.3781" lon="6.18676">
        <ele>1497.51</ele>
        <time>2022-07-18T07:35:00Z</time>
      </trkpt>
      <trkpt lat="45.37809" lon="6.18678">
        <ele>1498</ele>
        <time>2022-07-18T07:35:12Z</time>
      </trkpt>
      <trkpt lat="45.37831" lon="6.18642">
        <ele>1488</ele>
        <time>2022-07-18T07:36:05Z</time>
      </trkpt>
      <trkpt lat="45.37862" lon="6.18604">
        <ele>1476</ele>
        <time>2022-07-18T07:37:05Z</time>
      </trkpt>
      <trkpt lat="45.37869" lon="6.18592">
        <ele>1499</ele>
        <time>2022-07-18T07:38:05Z</time>
      </trkpt>
      <trkpt lat="45.37879" lon="6.18584">
        <ele>1461.67</ele>
        <time>2022-07-18T07:39:00Z</time>
      </trkpt>
      <trkpt lat="45.3788" lon="6.18586">
        <ele>1461</ele>
        <time>2022-07-18T07:39:05Z</time>
      </trkpt>
      <trkpt lat="45.37883" lon="6.18585">
        <ele>1461</ele>
        <time>2022-07-18T07:39:06Z</time>
      </trkpt>
      <trkpt lat="45.37941" lon="6.18563">
        <ele>1451</ele>
        <time>2022-07-18T07:40:05Z</time>
      </trkpt>
      <trkpt lat="45.3796" lon="6.18537">
        <ele>1437.88</ele>
        <time>2022-07-18T07:41:00Z</time>
      </trkpt>
      <trkpt lat="45.37959" lon="6.18538">
        <ele>1439</ele>
        <time>2022-07-18T07:41:04Z</time>
      </trkpt>
      <trkpt lat="45.3796" lon="6.18539">
        <ele>1439</ele>
        <time>2022-07-18T07:41:05Z</time>
      </trkpt>
      <trkpt lat="45.37937" lon="6.18513">
        <ele>1437</ele>
        <time>2022-07-18T07:42:04Z</time>
      </trkpt>
      <trkpt lat="45.37912" lon="6.18477">
        <ele>1427</ele>
        <time>2022-07-18T07:43:03Z</time>
      </trkpt>
      <trkpt lat="45.37889" lon="6.18436">
        <ele>1430.76</ele>
        <time>2022-07-18T07:44:00Z</time>
      </trkpt>
      <trkpt lat="45.3789" lon="6.18438">
        <ele>1432</ele>
        <time>2022-07-18T07:44:11Z</time>
      </trkpt>
      <trkpt lat="45.37814" lon="6.18445">
        <ele>1448</ele>
        <time>2022-07-18T07:45:53Z</time>
      </trkpt>
      <trkpt lat="45.37804" lon="6.1844">
        <ele>1449.77</ele>
        <time>2022-07-18T07:46:00Z</time>
      </trkpt>
      <trkpt lat="45.37805" lon="6.18442">
        <ele>1451</ele>
        <time>2022-07-18T07:46:12Z</time>
      </trkpt>
      <trkpt lat="45.37767" lon="6.18432">
        <ele>1461</ele>
        <time>2022-07-18T07:47:11Z</time>
      </trkpt>
      <trkpt lat="45.37739" lon="6.18452">
        <ele>1470</ele>
        <time>2022-07-18T07:48:11Z</time>
      </trkpt>
      <trkpt lat="45.3771" lon="6.18395">
        <ele>1485.54</ele>
        <time>2022-07-18T07:49:45Z</time>
      </trkpt>
      <trkpt lat="45.3771" lon="6.18396">
        <ele>1485</ele>
        <time>2022-07-18T07:49:47Z</time>
      </trkpt>
      <trkpt lat="45.3771" lon="6.18396">
        <ele>1485</ele>
        <time>2022-07-18T07:49:48Z</time>
      </trkpt>
      <trkpt lat="45.37711" lon="6.18333">
        <ele>1515</ele>
        <time>2022-07-18T07:50:53Z</time>
      </trkpt>
      <trkpt lat="45.37723" lon="6.18337">
        <ele>1548</ele>
        <time>2022-07-18T07:51:45Z</time>
      </trkpt>
      <trkpt lat="45.37724" lon="6.18338">
        <ele>1549</ele>
        <time>2022-07-18T07:51:49Z</time>
      </trkpt>
      <trkpt lat="45.37682" lon="6.18319">
        <ele>1559</ele>
        <time>2022-07-18T07:52:47Z</time>
      </trkpt>
      <trkpt lat="45.37692" lon="6.1828">
        <ele>1534</ele>
        <time>2022-07-18T07:53:47Z</time>
      </trkpt>
      <trkpt lat="45.37695" lon="6.18215">
        <ele>1540.76</ele>
        <time>2022-07-18T07:54:30Z</time>
      </trkpt>
      <trkpt lat="45.37695" lon="6.18215">
        <ele>1541</ele>
        <time>2022-07-18T07:54:42Z</time>
      </trkpt>
      <trkpt lat="45.37696" lon="6.1821">
        <ele>1541</ele>
        <time>2022-07-18T07:54:46Z</time>
      </trkpt>
      <trkpt lat="45.37702" lon="6.18144">
        <ele>1549</ele>
        <time>2022-07-18T07:55:45Z</time>
      </trkpt>
      <trkpt lat="45.37718" lon="6.1809">
        <ele>1557.66</ele>
        <time>2022-07-18T07:56:30Z</time>
      </trkpt>
      <trkpt lat="45.37719" lon="6.18091">
        <ele>1558</ele>
        <time>2022-07-18T07:56:42Z</time>
      </trkpt>
      <trkpt lat="45.37746" lon="6.18065">
        <ele>1565</ele>
        <time>2022-07-18T07:57:41Z</time>
      </trkpt>
      <trkpt lat="45.37752" lon="6.18026">
        <ele>1575</ele>
        <time>2022-07-18T07:58:40Z</time>
      </trkpt>
      <trkpt lat="45.37748" lon="6.18011">
        <ele>1577.02</ele>
        <time>2022-07-18T07:58:45Z</time>
      </trkpt>
      <trkpt lat="45.37749" lon="6.18012">
        <ele>1577</ele>
        <time>2022-07-18T07:58:53Z</time>
      </trkpt>
      <trkpt lat="45.37768" lon="6.18014">
        <ele>1579</ele>
        <time>2022-07-18T07:59:40Z</time>
      </trkpt>
      <trkpt lat="45.37774" lon="6.18007">
        <ele>1623</ele>
        <time>2022-07-18T08:00:45Z</time>
      </trkpt>
      <trkpt lat="45.37784" lon="6.17954">
        <ele>1581</ele>
        <time>2022-07-18T08:03:42Z</time>
      </trkpt>
      <trkpt lat="45.37825" lon="6.17944">
        <ele>1733</ele>
        <time>2022-07-18T08:04:55Z</time>
      </trkpt>
      <trkpt lat="45.37786" lon="6.17905">
        <ele>1603</ele>
        <time>2022-07-18T08:06:29Z</time>
      </trkpt>
      <trkpt lat="45.37801" lon="6.17889">
        <ele>1613</ele>
        <time>2022-07-18T08:07:28Z</time>
      </trkpt>
      <trkpt lat="45.37804" lon="6.17878">
        <ele>1616</ele>
        <time>2022-07-18T08:08:30Z</time>
      </trkpt>
      <trkpt lat="45.37816" lon="6.17833">
        <ele>1640.34</ele>
        <time>2022-07-18T08:10:15Z</time>
      </trkpt>
      <trkpt lat="45.37817" lon="6.17834">
        <ele>1640</ele>
        <time>2022-07-18T08:10:23Z</time>
      </trkpt>
      <trkpt lat="45.37817" lon="6.17834">
        <ele>1640</ele>
        <time>2022-07-18T08:10:24Z</time>
      </trkpt>
      <trkpt lat="45.37805" lon="6.17827">
        <ele>1653</ele>
        <time>2022-07-18T08:11:23Z</time>
      </trkpt>
      <trkpt lat="45.37802" lon="6.17775">
        <ele>1662.4</ele>
        <time>2022-07-18T08:12:15Z</time>
      </trkpt>
      <trkpt lat="45.37802" lon="6.17777">
        <ele>1661</ele>
        <time>2022-07-18T08:12:22Z</time>
      </trkpt>
      <trkpt lat="45.37803" lon="6.17775">
        <ele>1662</ele>
        <time>2022-07-18T08:12:24Z</time>
      </trkpt>
      <trkpt lat="45.37795" lon="6.17715">
        <ele>1668</ele>
        <time>2022-07-18T08:13:21Z</time>
      </trkpt>
      <trkpt lat="45.37783" lon="6.17691">
        <ele>1690</ele>
        <time>2022-07-18T08:14:21Z</time>
      </trkpt>
      <trkpt lat="45.37781" lon="6.17631">
        <ele>1696.86</ele>
        <time>2022-07-18T08:15:00Z</time>
      </trkpt>
      <trkpt lat="45.37781" lon="6.17632">
        <ele>1697</ele>
        <time>2022-07-18T08:15:14Z</time>
      </trkpt>
      <trkpt lat="45.37778" lon="6.17562">
        <ele>1695</ele>
        <time>2022-07-18T08:16:13Z</time>
      </trkpt>
      <trkpt lat="45.37798" lon="6.17516">
        <ele>1666</ele>
        <time>2022-07-18T08:17:13Z</time>
      </trkpt>
      <trkpt lat="45.37799" lon="6.17513">
        <ele>1664.85</ele>
        <time>2022-07-18T08:17:15Z</time>
      </trkpt>
      <trkpt lat="45.37799" lon="6.17514">
        <ele>1666</ele>
        <time>2022-07-18T08:17:15Z</time>
      </trkpt>
      <trkpt lat="45.37772" lon="6.17455">
        <ele>1690</ele>
        <time>2022-07-18T08:18:13Z</time>
      </trkpt>
      <trkpt lat="45.37722" lon="6.17412">
        <ele>1689</ele>
        <time>2022-07-18T08:19:12Z</time>
      </trkpt>
      <trkpt lat="45.37721" lon="6.17406">
        <ele>1689.46</ele>
        <time>2022-07-18T08:19:15Z</time>
      </trkpt>
      <trkpt lat="45.37721" lon="6.17408">
        <ele>1689</ele>
        <time>2022-07-18T08:19:16Z</time>
      </trkpt>
      <trkpt lat="45.37688" lon="6.17368">
        <ele>1661</ele>
        <time>2022-07-18T08:20:12Z</time>
      </trkpt>
      <trkpt lat="45.37661" lon="6.17334">
        <ele>1686</ele>
        <time>2022-07-18T08:21:11Z</time>
      </trkpt>
      <trkpt lat="45.37662" lon="6.17329">
        <ele>1686.99</ele>
        <time>2022-07-18T08:21:15Z</time>
      </trkpt>
      <trkpt lat="45.37662" lon="6.1733">
        <ele>1686</ele>
        <time>2022-07-18T08:21:16Z</time>
      </trkpt>
      <trkpt lat="45.37675" lon="6.17273">
        <ele>1690</ele>
        <time>2022-07-18T08:22:10Z</time>
      </trkpt>
      <trkpt lat="45.37679" lon="6.17239">
        <ele>1694</ele>
        <time>2022-07-18T08:23:09Z</time>
      </trkpt>
      <trkpt lat="45.37701" lon="6.17224">
        <ele>1699</ele>
        <time>2022-07-18T08:24:09Z</time>
      </trkpt>
      <trkpt lat="45.37731" lon="6.17189">
        <ele>1704.26</ele>
        <time>2022-07-18T08:25:00Z</time>
      </trkpt>
      <trkpt lat="45.37731" lon="6.17191">
        <ele>1705</ele>
        <time>2022-07-18T08:25:03Z</time>
      </trkpt>
      <trkpt lat="45.37738" lon="6.17193">
        <ele>1706</ele>
        <time>2022-07-18T08:25:08Z</time>
      </trkpt>
      <trkpt lat="45.37734" lon="6.17164">
        <ele>1686.99</ele>
        <time>2022-07-18T08:27:00Z</time>
      </trkpt>
      <trkpt lat="45.37736" lon="6.17167">
        <ele>1688</ele>
        <time>2022-07-18T08:27:01Z</time>
      </trkpt>
      <trkpt lat="45.37735" lon="6.17165">
        <ele>1688</ele>
        <time>2022-07-18T08:27:04Z</time>
      </trkpt>
      <trkpt lat="45.37728" lon="6.17204">
        <ele>1743</ele>
        <time>2022-07-18T08:28:59Z</time>
      </trkpt>
      <trkpt lat="45.37742" lon="6.17186">
        <ele>1743</ele>
        <time>2022-07-18T08:30:57Z</time>
      </trkpt>
      <trkpt lat="45.37725" lon="6.17173">
        <ele>1679</ele>
        <time>2022-07-18T08:31:57Z</time>
      </trkpt>
      <trkpt lat="45.37693" lon="6.17314">
        <ele>1889.66</ele>
        <time>2022-07-18T08:32:45Z</time>
      </trkpt>
      <trkpt lat="45.37694" lon="6.17314">
        <ele>1889</ele>
        <time>2022-07-18T08:32:57Z</time>
      </trkpt>
      <trkpt lat="45.37697" lon="6.17313">
        <ele>1889</ele>
        <time>2022-07-18T08:32:58Z</time>
      </trkpt>
      <trkpt lat="45.37756" lon="6.1714">
        <ele>1706.73</ele>
        <time>2022-07-18T08:34:45Z</time>
      </trkpt>
      <trkpt lat="45.37758" lon="6.17154">
        <ele>1707</ele>
        <time>2022-07-18T08:34:49Z</time>
      </trkpt>
      <trkpt lat="45.37756" lon="6.17141">
        <ele>1708</ele>
        <time>2022-07-18T08:34:58Z</time>
      </trkpt>
      <trkpt lat="45.37784" lon="6.17129">
        <ele>1714</ele>
        <time>2022-07-18T08:35:49Z</time>
      </trkpt>
      <trkpt lat="45.37829" lon="6.17123">
        <ele>1721.58</ele>
        <time>2022-07-18T08:36:45Z</time>
      </trkpt>
      <trkpt lat="45.3783" lon="6.17123">
        <ele>1723</ele>
        <time>2022-07-18T08:36:59Z</time>
      </trkpt>
      <trkpt lat="45.37829" lon="6.17123">
        <ele>1723</ele>
        <time>2022-07-18T08:36:59Z</time>
      </trkpt>
      <trkpt lat="45.37894" lon="6.17095">
        <ele>1762</ele>
        <time>2022-07-18T08:38:44Z</time>
      </trkpt>
      <trkpt lat="45.3793" lon="6.1711">
        <ele>1768.81</ele>
        <time>2022-07-18T08:39:30Z</time>
      </trkpt>
      <trkpt lat="45.3793" lon="6.17111">
        <ele>1770</ele>
        <time>2022-07-18T08:39:43Z</time>
      </trkpt>
      <trkpt lat="45.3793" lon="6.17111">
        <ele>1770</ele>
        <time>2022-07-18T08:39:44Z</time>
      </trkpt>
      <trkpt lat="45.37952" lon="6.17094">
        <ele>1750</ele>
        <time>2022-07-18T08:40:42Z</time>
      </trkpt>
      <trkpt lat="45.3798" lon="6.17056">
        <ele>1761.33</ele>
        <time>2022-07-18T08:41:30Z</time>
      </trkpt>
      <trkpt lat="45.3798" lon="6.1706">
        <ele>1761</ele>
        <time>2022-07-18T08:41:41Z</time>
      </trkpt>
      <trkpt lat="45.37981" lon="6.17058">
        <ele>1761</ele>
        <time>2022-07-18T08:41:44Z</time>
      </trkpt>
      <trkpt lat="45.38002" lon="6.1705">
        <ele>1767</ele>
        <time>2022-07-18T08:42:41Z</time>
      </trkpt>
      <trkpt lat="45.38002" lon="6.17007">
        <ele>1776</ele>
        <time>2022-07-18T08:43:40Z</time>
      </trkpt>
      <trkpt lat="45.37983" lon="6.16953">
        <ele>1773</ele>
        <time>2022-07-18T08:44:39Z</time>
      </trkpt>
      <trkpt lat="45.37958" lon="6.16895">
        <ele>1776.3</ele>
        <time>2022-07-18T08:45:45Z</time>
      </trkpt>
      <trkpt lat="45.37958" lon="6.16897">
        <ele>1776</ele>
        <time>2022-07-18T08:45:49Z</time>
      </trkpt>
      <trkpt lat="45.37948" lon="6.16881">
        <ele>1783</ele>
        <time>2022-07-18T08:46:34Z</time>
      </trkpt>
      <trkpt lat="45.37955" lon="6.16873">
        <ele>1839</ele>
        <time>2022-07-18T08:47:34Z</time>
      </trkpt>
      <trkpt lat="45.37952" lon="6.16865">
        <ele>1841.56</ele>
        <time>2022-07-18T08:47:45Z</time>
      </trkpt>
      <trkpt lat="45.37953" lon="6.16866">
        <ele>1840</ele>
        <time>2022-07-18T08:47:50Z</time>
      </trkpt>
      <trkpt lat="45.3793" lon="6.1681">
        <ele>1836</ele>
        <time>2022-07-18T08:48:35Z</time>
      </trkpt>
      <trkpt lat="45.37915" lon="6.16736">
        <ele>1774</ele>
        <time>2022-07-18T08:49:34Z</time>
      </trkpt>
      <trkpt lat="45.37913" lon="6.16713">
        <ele>1771.3</ele>
        <time>2022-07-18T08:49:45Z</time>
      </trkpt>
      <trkpt lat="45.37913" lon="6.16714">
        <ele>1772</ele>
        <time>2022-07-18T08:49:51Z</time>
      </trkpt>
      <trkpt lat="45.37912" lon="6.16633">
        <ele>1760</ele>
        <time>2022-07-18T08:51:26Z</time>
      </trkpt>
      <trkpt lat="45.37913" lon="6.16614">
        <ele>1758.84</ele>
        <time>2022-07-18T08:51:45Z</time>
      </trkpt>
      <trkpt lat="45.37913" lon="6.16614">
        <ele>1758</ele>
        <time>2022-07-18T08:51:51Z</time>
      </trkpt>
      <trkpt lat="45.37927" lon="6.16606">
        <ele>1754</ele>
        <time>2022-07-18T08:52:25Z</time>
      </trkpt>
      <trkpt lat="45.37939" lon="6.16584">
        <ele>1744</ele>
        <time>2022-07-18T08:53:26Z</time>
      </trkpt>
      <trkpt lat="45.37946" lon="6.16533">
        <ele>1714</ele>
        <time>2022-07-18T08:54:25Z</time>
      </trkpt>
      <trkpt lat="45.37981" lon="6.16498">
        <ele>1714.15</ele>
        <time>2022-07-18T08:55:15Z</time>
      </trkpt>
      <trkpt lat="45.37981" lon="6.16499">
        <ele>1715</ele>
        <time>2022-07-18T08:55:24Z</time>
      </trkpt>
      <trkpt lat="45.37982" lon="6.16501">
        <ele>1715</ele>
        <time>2022-07-18T08:55:24Z</time>
      </trkpt>
      <trkpt lat="45.37992" lon="6.16429">
        <ele>1734</ele>
        <time>2022-07-18T08:56:24Z</time>
      </trkpt>
      <trkpt lat="45.37984" lon="6.16363">
        <ele>1743.91</ele>
        <time>2022-07-18T08:57:15Z</time>
      </trkpt>
      <trkpt lat="45.37985" lon="6.16366">
        <ele>1743</ele>
        <time>2022-07-18T08:57:23Z</time>
      </trkpt>
      <trkpt lat="45.37985" lon="6.16365">
        <ele>1744</ele>
        <time>2022-07-18T08:57:24Z</time>
      </trkpt>
      <trkpt lat="45.3801" lon="6.16322">
        <ele>1746</ele>
        <time>2022-07-18T08:58:22Z</time>
      </trkpt>
      <trkpt lat="45.37996" lon="6.16286">
        <ele>1753.86</ele>
        <time>2022-07-18T08:59:15Z</time>
      </trkpt>
      <trkpt lat="45.37997" lon="6.1629">
        <ele>1752</ele>
        <time>2022-07-18T08:59:22Z</time>
      </trkpt>
      <trkpt lat="45.37996" lon="6.16287">
        <ele>1753</ele>
        <time>2022-07-18T08:59:25Z</time>
      </trkpt>
      <trkpt lat="45.37999" lon="6.16246">
        <ele>1766</ele>
        <time>2022-07-18T09:00:21Z</time>
      </trkpt>
      <trkpt lat="45.37977" lon="6.16206">
        <ele>1761</ele>
        <time>2022-07-18T09:01:21Z</time>
      </trkpt>
      <trkpt lat="45.37987" lon="6.16146">
        <ele>1781.3</ele>
        <time>2022-07-18T09:03:00Z</time>
      </trkpt>
      <trkpt lat="45.37986" lon="6.16148">
        <ele>1782</ele>
        <time>2022-07-18T09:03:13Z</time>
      </trkpt>
      <trkpt lat="45.37987" lon="6.16148">
        <ele>1782</ele>
        <time>2022-07-18T09:03:13Z</time>
      </trkpt>
      <trkpt lat="45.38008" lon="6.16141">
        <ele>1788</ele>
        <time>2022-07-18T09:04:12Z</time>
      </trkpt>
      <trkpt lat="45.38017" lon="6.16101">
        <ele>1798.81</ele>
        <time>2022-07-18T09:05:00Z</time>
      </trkpt>
      <trkpt lat="45.38018" lon="6.16103">
        <ele>1798</ele>
        <time>2022-07-18T09:05:11Z</time>
      </trkpt>
      <trkpt lat="45.38018" lon="6.16101">
        <ele>1798</ele>
        <time>2022-07-18T09:05:14Z</time>
      </trkpt>
      <trkpt lat="45.3802" lon="6.16086">
        <ele>1802</ele>
        <time>2022-07-18T09:06:11Z</time>
      </trkpt>
      <trkpt lat="45.38017" lon="6.16038">
        <ele>1805</ele>
        <time>2022-07-18T09:07:10Z</time>
      </trkpt>
      <trkpt lat="45.38019" lon="6.16015">
        <ele>1813</ele>
        <time>2022-07-18T09:08:09Z</time>
      </trkpt>
      <trkpt lat="45.38016" lon="6.15983">
        <ele>1822</ele>
        <time>2022-07-18T09:09:09Z</time>
      </trkpt>
      <trkpt lat="45.38004" lon="6.15973">
        <ele>1826.44</ele>
        <time>2022-07-18T09:10:00Z</time>
      </trkpt>
      <trkpt lat="45.38005" lon="6.15973">
        <ele>1827</ele>
        <time>2022-07-18T09:10:05Z</time>
      </trkpt>
      <trkpt lat="45.37998" lon="6.15962">
        <ele>1844</ele>
        <time>2022-07-18T09:11:01Z</time>
      </trkpt>
      <trkpt lat="45.37981" lon="6.15932">
        <ele>1844.08</ele>
        <time>2022-07-18T09:12:00Z</time>
      </trkpt>
      <trkpt lat="45.37983" lon="6.15937">
        <ele>1843</ele>
        <time>2022-07-18T09:12:02Z</time>
      </trkpt>
      <trkpt lat="45.37981" lon="6.15933">
        <ele>1844</ele>
        <time>2022-07-18T09:12:06Z</time>
      </trkpt>
      <trkpt lat="45.37949" lon="6.15899">
        <ele>1852</ele>
        <time>2022-07-18T09:13:01Z</time>
      </trkpt>
      <trkpt lat="45.37898" lon="6.15852">
        <ele>1856.71</ele>
        <time>2022-07-18T09:14:00Z</time>
      </trkpt>
      <trkpt lat="45.37903" lon="6.15857">
        <ele>1857</ele>
        <time>2022-07-18T09:14:01Z</time>
      </trkpt>
      <trkpt lat="45.37898" lon="6.15854">
        <ele>1857</ele>
        <time>2022-07-18T09:14:07Z</time>
      </trkpt>
      <trkpt lat="45.37876" lon="6.15832">
        <ele>1859</ele>
        <time>2022-07-18T09:15:00Z</time>
      </trkpt>
      <trkpt lat="45.37833" lon="6.15776">
        <ele>1863</ele>
        <time>2022-07-18T09:15:59Z</time>
      </trkpt>
      <trkpt lat="45.37827" lon="6.15767">
        <ele>1864.3</ele>
        <time>2022-07-18T09:16:00Z</time>
      </trkpt>
      <trkpt lat="45.37828" lon="6.15768">
        <ele>1864</ele>
        <time>2022-07-18T09:16:08Z</time>
      </trkpt>
      <trkpt lat="45.37789" lon="6.15736">
        <ele>1869</ele>
        <time>2022-07-18T09:16:59Z</time>
      </trkpt>
      <trkpt lat="45.37792" lon="6.15728">
        <ele>1872</ele>
        <time>2022-07-18T09:17:58Z</time>
      </trkpt>
      <trkpt lat="45.37798" lon="6.15722">
        <ele>1874.43</ele>
        <time>2022-07-18T09:18:00Z</time>
      </trkpt>
      <trkpt lat="45.37798" lon="6.15723">
        <ele>1874</ele>
        <time>2022-07-18T09:18:08Z</time>
      </trkpt>
      <trkpt lat="45.378" lon="6.15659">
        <ele>1886</ele>
        <time>2022-07-18T09:19:51Z</time>
      </trkpt>
      <trkpt lat="45.37795" lon="6.1563">
        <ele>1892</ele>
        <time>2022-07-18T09:20:50Z</time>
      </trkpt>
      <trkpt lat="45.37787" lon="6.15606">
        <ele>1901</ele>
        <time>2022-07-18T09:21:50Z</time>
      </trkpt>
      <trkpt lat="45.37778" lon="6.1558">
        <ele>1910.02</ele>
        <time>2022-07-18T09:22:45Z</time>
      </trkpt>
      <trkpt lat="45.37779" lon="6.15582">
        <ele>1910</ele>
        <time>2022-07-18T09:22:46Z</time>
      </trkpt>
      <trkpt lat="45.37777" lon="6.15577">
        <ele>1912</ele>
        <time>2022-07-18T09:22:50Z</time>
      </trkpt>
      <trkpt lat="45.37742" lon="6.15545">
        <ele>1917</ele>
        <time>2022-07-18T09:23:52Z</time>
      </trkpt>
      <trkpt lat="45.37727" lon="6.15488">
        <ele>1927.89</ele>
        <time>2022-07-18T09:24:45Z</time>
      </trkpt>
      <trkpt lat="45.37727" lon="6.15489">
        <ele>1928</ele>
        <time>2022-07-18T09:24:47Z</time>
      </trkpt>
      <trkpt lat="45.37719" lon="6.15467">
        <ele>1931</ele>
        <time>2022-07-18T09:25:43Z</time>
      </trkpt>
      <trkpt lat="45.37714" lon="6.15449">
        <ele>1936</ele>
        <time>2022-07-18T09:26:42Z</time>
      </trkpt>
      <trkpt lat="45.37688" lon="6.15419">
        <ele>1943</ele>
        <time>2022-07-18T09:27:41Z</time>
      </trkpt>
      <trkpt lat="45.37663" lon="6.15387">
        <ele>1950.93</ele>
        <time>2022-07-18T09:28:30Z</time>
      </trkpt>
      <trkpt lat="45.37663" lon="6.15387">
        <ele>1950</ele>
        <time>2022-07-18T09:28:39Z</time>
      </trkpt>
      <trkpt lat="45.37663" lon="6.15386">
        <ele>1951</ele>
        <time>2022-07-18T09:28:41Z</time>
      </trkpt>
      <trkpt lat="45.37657" lon="6.15359">
        <ele>1957</ele>
        <time>2022-07-18T09:29:40Z</time>
      </trkpt>
      <trkpt lat="45.3769" lon="6.15314">
        <ele>1956.06</ele>
        <time>2022-07-18T09:30:30Z</time>
      </trkpt>
      <trkpt lat="45.37691" lon="6.15314">
        <ele>1957</ele>
        <time>2022-07-18T09:30:39Z</time>
      </trkpt>
      <trkpt lat="45.37745" lon="6.15261">
        <ele>1952</ele>
        <time>2022-07-18T09:31:38Z</time>
      </trkpt>
      <trkpt lat="45.37792" lon="6.152">
        <ele>1948.37</ele>
        <time>2022-07-18T09:32:30Z</time>
      </trkpt>
      <trkpt lat="45.37791" lon="6.15205">
        <ele>1947</ele>
        <time>2022-07-18T09:32:38Z</time>
      </trkpt>
      <trkpt lat="45.37793" lon="6.15202">
        <ele>1947</ele>
        <time>2022-07-18T09:32:40Z</time>
      </trkpt>
      <trkpt lat="45.3784" lon="6.15149">
        <ele>1943</ele>
        <time>2022-07-18T09:33:37Z</time>
      </trkpt>
      <trkpt lat="45.37861" lon="6.15097">
        <ele>1943.24</ele>
        <time>2022-07-18T09:34:30Z</time>
      </trkpt>
      <trkpt lat="45.37861" lon="6.15102">
        <ele>1943</ele>
        <time>2022-07-18T09:34:36Z</time>
      </trkpt>
      <trkpt lat="45.37861" lon="6.15098">
        <ele>1943</ele>
        <time>2022-07-18T09:34:41Z</time>
      </trkpt>
      <trkpt lat="45.37885" lon="6.15055">
        <ele>1939</ele>
        <time>2022-07-18T09:35:35Z</time>
      </trkpt>
      <trkpt lat="45.37934" lon="6.15016">
        <ele>1935.56</ele>
        <time>2022-07-18T09:36:30Z</time>
      </trkpt>
      <trkpt lat="45.37931" lon="6.15015">
        <ele>1935</ele>
        <time>2022-07-18T09:36:39Z</time>
      </trkpt>
      <trkpt lat="45.37934" lon="6.15016">
        <ele>1935</ele>
        <time>2022-07-18T09:36:41Z</time>
      </trkpt>
      <trkpt lat="45.38011" lon="6.14964">
        <ele>1937</ele>
        <time>2022-07-18T09:38:26Z</time>
      </trkpt>
      <trkpt lat="45.3801" lon="6.14947">
        <ele>1930.44</ele>
        <time>2022-07-18T09:38:30Z</time>
      </trkpt>
      <trkpt lat="45.38011" lon="6.14948">
        <ele>1931</ele>
        <time>2022-07-18T09:38:42Z</time>
      </trkpt>
      <trkpt lat="45.38016" lon="6.14907">
        <ele>1927</ele>
        <time>2022-07-18T09:39:26Z</time>
      </trkpt>
      <trkpt lat="45.38028" lon="6.14846">
        <ele>1925</ele>
        <time>2022-07-18T09:40:25Z</time>
      </trkpt>
      <trkpt lat="45.38025" lon="6.14833">
        <ele>1922.78</ele>
        <time>2022-07-18T09:40:30Z</time>
      </trkpt>
      <trkpt lat="45.38026" lon="6.14835">
        <ele>1923</ele>
        <time>2022-07-18T09:40:42Z</time>
      </trkpt>
      <trkpt lat="45.38035" lon="6.14777">
        <ele>1916</ele>
        <time>2022-07-18T09:41:24Z</time>
      </trkpt>
      <trkpt lat="45.38021" lon="6.14694">
        <ele>1910</ele>
        <time>2022-07-18T09:42:23Z</time>
      </trkpt>
      <trkpt lat="45.38013" lon="6.14668">
        <ele>1904.92</ele>
        <time>2022-07-18T09:42:30Z</time>
      </trkpt>
      <trkpt lat="45.38013" lon="6.14668">
        <ele>1905</ele>
        <time>2022-07-18T09:42:43Z</time>
      </trkpt>
      <trkpt lat="45.38022" lon="6.14624">
        <ele>1895</ele>
        <time>2022-07-18T09:43:23Z</time>
      </trkpt>
      <trkpt lat="45.38032" lon="6.14563">
        <ele>1879</ele>
        <time>2022-07-18T09:44:22Z</time>
      </trkpt>
      <trkpt lat="45.38031" lon="6.14537">
        <ele>1874.43</ele>
        <time>2022-07-18T09:44:30Z</time>
      </trkpt>
      <trkpt lat="45.38031" lon="6.14537">
        <ele>1873</ele>
        <time>2022-07-18T09:44:44Z</time>
      </trkpt>
      <trkpt lat="45.38033" lon="6.14496">
        <ele>1864</ele>
        <time>2022-07-18T09:45:22Z</time>
      </trkpt>
      <trkpt lat="45.38013" lon="6.14445">
        <ele>1841.56</ele>
        <time>2022-07-18T09:46:30Z</time>
      </trkpt>
      <trkpt lat="45.38014" lon="6.1445">
        <ele>1841</ele>
        <time>2022-07-18T09:46:42Z</time>
      </trkpt>
      <trkpt lat="45.38014" lon="6.14446">
        <ele>1841</ele>
        <time>2022-07-18T09:46:44Z</time>
      </trkpt>
      <trkpt lat="45.37994" lon="6.14419">
        <ele>1825</ele>
        <time>2022-07-18T09:48:13Z</time>
      </trkpt>
      <trkpt lat="45.3799" lon="6.14377">
        <ele>1809</ele>
        <time>2022-07-18T09:49:12Z</time>
      </trkpt>
      <trkpt lat="45.38044" lon="6.14336">
        <ele>1794</ele>
        <time>2022-07-18T09:50:11Z</time>
      </trkpt>
      <trkpt lat="45.37998" lon="6.14307">
        <ele>1778.8</ele>
        <time>2022-07-18T09:51:00Z</time>
      </trkpt>
      <trkpt lat="45.37998" lon="6.14308">
        <ele>1779</ele>
        <time>2022-07-18T09:51:10Z</time>
      </trkpt>
      <trkpt lat="45.37998" lon="6.14307">
        <ele>1779</ele>
        <time>2022-07-18T09:51:11Z</time>
      </trkpt>
      <trkpt lat="45.37934" lon="6.14294">
        <ele>1768</ele>
        <time>2022-07-18T09:52:10Z</time>
      </trkpt>
      <trkpt lat="45.37888" lon="6.14271">
        <ele>1751.37</ele>
        <time>2022-07-18T09:53:00Z</time>
      </trkpt>
      <trkpt lat="45.3789" lon="6.14271">
        <ele>1751</ele>
        <time>2022-07-18T09:53:09Z</time>
      </trkpt>
      <trkpt lat="45.37888" lon="6.14273">
        <ele>1751</ele>
        <time>2022-07-18T09:53:11Z</time>
      </trkpt>
      <trkpt lat="45.37862" lon="6.14321">
        <ele>1740</ele>
        <time>2022-07-18T09:54:09Z</time>
      </trkpt>
      <trkpt lat="45.37846" lon="6.1431">
        <ele>1733.98</ele>
        <time>2022-07-18T09:55:00Z</time>
      </trkpt>
      <trkpt lat="45.37846" lon="6.14311">
        <ele>1735</ele>
        <time>2022-07-18T09:55:11Z</time>
      </trkpt>
      <trkpt lat="45.37847" lon="6.14314">
        <ele>1735</ele>
        <time>2022-07-18T09:55:12Z</time>
      </trkpt>
      <trkpt lat="45.37855" lon="6.1431">
        <ele>1733.98</ele>
        <time>2022-07-18T09:56:45Z</time>
      </trkpt>
    </trkseg>
  </trk>
  <trk>
    <name><![CDATA[Steve Farrugia (5892323)]]></name>
    <desc><![CDATA[Steve Farrugia (5892323)]]></desc>
    <extensions>
      <line xmlns="http://www.topografix.com/GPX/gpx_style/0/2">
        <color>00FF00</color>
        <width>4</width>
      </line>
    </extensions>
    <trkseg>
      <trkpt lat="45.3785" lon="6.14241">
        <ele>1729.01</ele>
        <time>2022-07-18T11:14:15Z</time>
      </trkpt>
      <trkpt lat="45.37851" lon="6.14242">
        <ele>1729</ele>
        <time>2022-07-18T11:14:22Z</time>
      </trkpt>
      <trkpt lat="45.3785" lon="6.14242">
        <ele>1729</ele>
        <time>2022-07-18T11:14:22Z</time>
      </trkpt>
      <trkpt lat="45.37844" lon="6.14213">
        <ele>1749</ele>
        <time>2022-07-18T11:15:29Z</time>
      </trkpt>
      <trkpt lat="45.37852" lon="6.14222">
        <ele>1738.94</ele>
        <time>2022-07-18T11:16:15Z</time>
      </trkpt>
      <trkpt lat="45.37853" lon="6.14222">
        <ele>1738</ele>
        <time>2022-07-18T11:16:23Z</time>
      </trkpt>
      <trkpt lat="45.37858" lon="6.14222">
        <ele>1729</ele>
        <time>2022-07-18T11:17:15Z</time>
      </trkpt>
      <trkpt lat="45.37882" lon="6.1415">
        <ele>1716</ele>
        <time>2022-07-18T11:18:16Z</time>
      </trkpt>
      <trkpt lat="45.37853" lon="6.14127">
        <ele>1696</ele>
        <time>2022-07-18T11:19:16Z</time>
      </trkpt>
      <trkpt lat="45.37771" lon="6.14155">
        <ele>1684.53</ele>
        <time>2022-07-18T11:20:00Z</time>
      </trkpt>
      <trkpt lat="45.37772" lon="6.14157">
        <ele>1684</ele>
        <time>2022-07-18T11:20:14Z</time>
      </trkpt>
      <trkpt lat="45.3777" lon="6.14158">
        <ele>1683</ele>
        <time>2022-07-18T11:20:15Z</time>
      </trkpt>
      <trkpt lat="45.37794" lon="6.14096">
        <ele>1666</ele>
        <time>2022-07-18T11:21:14Z</time>
      </trkpt>
      <trkpt lat="45.37736" lon="6.14104">
        <ele>1652.59</ele>
        <time>2022-07-18T11:22:00Z</time>
      </trkpt>
      <trkpt lat="45.37735" lon="6.14103">
        <ele>1653</ele>
        <time>2022-07-18T11:22:13Z</time>
      </trkpt>
      <trkpt lat="45.37737" lon="6.14104">
        <ele>1652</ele>
        <time>2022-07-18T11:22:14Z</time>
      </trkpt>
      <trkpt lat="45.37684" lon="6.14136">
        <ele>1635</ele>
        <time>2022-07-18T11:23:13Z</time>
      </trkpt>
      <trkpt lat="45.37691" lon="6.14064">
        <ele>1614</ele>
        <time>2022-07-18T11:24:12Z</time>
      </trkpt>
      <trkpt lat="45.37655" lon="6.14048">
        <ele>1598.87</ele>
        <time>2022-07-18T11:25:00Z</time>
      </trkpt>
      <trkpt lat="45.37655" lon="6.14048">
        <ele>1598</ele>
        <time>2022-07-18T11:25:09Z</time>
      </trkpt>
      <trkpt lat="45.37653" lon="6.14049">
        <ele>1598</ele>
        <time>2022-07-18T11:25:11Z</time>
      </trkpt>
      <trkpt lat="45.37657" lon="6.13999">
        <ele>1584</ele>
        <time>2022-07-18T11:26:10Z</time>
      </trkpt>
      <trkpt lat="45.37629" lon="6.13958">
        <ele>1567.34</ele>
        <time>2022-07-18T11:27:00Z</time>
      </trkpt>
      <trkpt lat="45.37629" lon="6.13959">
        <ele>1567</ele>
        <time>2022-07-18T11:27:10Z</time>
      </trkpt>
      <trkpt lat="45.37629" lon="6.13959">
        <ele>1567</ele>
        <time>2022-07-18T11:27:10Z</time>
      </trkpt>
      <trkpt lat="45.37537" lon="6.13891">
        <ele>1535.94</ele>
        <time>2022-07-18T11:29:00Z</time>
      </trkpt>
      <trkpt lat="45.37543" lon="6.13896">
        <ele>1538</ele>
        <time>2022-07-18T11:29:02Z</time>
      </trkpt>
      <trkpt lat="45.37538" lon="6.13892">
        <ele>1536</ele>
        <time>2022-07-18T11:29:10Z</time>
      </trkpt>
      <trkpt lat="45.37534" lon="6.13835">
        <ele>1511</ele>
        <time>2022-07-18T11:30:02Z</time>
      </trkpt>
      <trkpt lat="45.37593" lon="6.13767">
        <ele>1497.51</ele>
        <time>2022-07-18T11:31:00Z</time>
      </trkpt>
      <trkpt lat="45.37588" lon="6.13773">
        <ele>1498</ele>
        <time>2022-07-18T11:31:01Z</time>
      </trkpt>
      <trkpt lat="45.37593" lon="6.13768">
        <ele>1497</ele>
        <time>2022-07-18T11:31:10Z</time>
      </trkpt>
      <trkpt lat="45.37632" lon="6.13717">
        <ele>1482</ele>
        <time>2022-07-18T11:32:01Z</time>
      </trkpt>
      <trkpt lat="45.37694" lon="6.13674">
        <ele>1459.29</ele>
        <time>2022-07-18T11:33:00Z</time>
      </trkpt>
      <trkpt lat="45.37683" lon="6.13685">
        <ele>1463</ele>
        <time>2022-07-18T11:33:00Z</time>
      </trkpt>
      <trkpt lat="45.37694" lon="6.13675">
        <ele>1459</ele>
        <time>2022-07-18T11:33:11Z</time>
      </trkpt>
      <trkpt lat="45.37734" lon="6.13645">
        <ele>1444</ele>
        <time>2022-07-18T11:33:59Z</time>
      </trkpt>
      <trkpt lat="45.37766" lon="6.13584">
        <ele>1423.65</ele>
        <time>2022-07-18T11:35:00Z</time>
      </trkpt>
      <trkpt lat="45.37766" lon="6.13588">
        <ele>1424</ele>
        <time>2022-07-18T11:35:10Z</time>
      </trkpt>
      <trkpt lat="45.37767" lon="6.13586">
        <ele>1423</ele>
        <time>2022-07-18T11:35:12Z</time>
      </trkpt>
      <trkpt lat="45.37716" lon="6.1353">
        <ele>1396</ele>
        <time>2022-07-18T11:36:52Z</time>
      </trkpt>
      <trkpt lat="45.3776" lon="6.13499">
        <ele>1392.91</ele>
        <time>2022-07-18T11:37:15Z</time>
      </trkpt>
      <trkpt lat="45.37761" lon="6.135">
        <ele>1392</ele>
        <time>2022-07-18T11:37:18Z</time>
      </trkpt>
      <trkpt lat="45.37776" lon="6.13502">
        <ele>1388</ele>
        <time>2022-07-18T11:37:52Z</time>
      </trkpt>
      <trkpt lat="45.3779" lon="6.13475">
        <ele>1371</ele>
        <time>2022-07-18T11:38:51Z</time>
      </trkpt>
      <trkpt lat="45.37781" lon="6.1343">
        <ele>1359</ele>
        <time>2022-07-18T11:39:50Z</time>
      </trkpt>
      <trkpt lat="45.378" lon="6.13406">
        <ele>1345</ele>
        <time>2022-07-18T11:40:50Z</time>
      </trkpt>
      <trkpt lat="45.37824" lon="6.13408">
        <ele>1336.52</ele>
        <time>2022-07-18T11:41:15Z</time>
      </trkpt>
      <trkpt lat="45.37824" lon="6.13409">
        <ele>1337</ele>
        <time>2022-07-18T11:41:17Z</time>
      </trkpt>
      <trkpt lat="45.37848" lon="6.13406">
        <ele>1331</ele>
        <time>2022-07-18T11:41:49Z</time>
      </trkpt>
      <trkpt lat="45.37823" lon="6.13353">
        <ele>1312</ele>
        <time>2022-07-18T11:43:14Z</time>
      </trkpt>
      <trkpt lat="45.37815" lon="6.13348">
        <ele>1313.16</ele>
        <time>2022-07-18T11:43:15Z</time>
      </trkpt>
      <trkpt lat="45.37815" lon="6.13349">
        <ele>1312</ele>
        <time>2022-07-18T11:43:17Z</time>
      </trkpt>
      <trkpt lat="45.3771" lon="6.13324">
        <ele>1328</ele>
        <time>2022-07-18T11:44:40Z</time>
      </trkpt>
      <trkpt lat="45.37677" lon="6.13333">
        <ele>1315.49</ele>
        <time>2022-07-18T11:45:15Z</time>
      </trkpt>
      <trkpt lat="45.37677" lon="6.13334">
        <ele>1315</ele>
        <time>2022-07-18T11:45:18Z</time>
      </trkpt>
      <trkpt lat="45.37646" lon="6.13326">
        <ele>1313</ele>
        <time>2022-07-18T11:45:41Z</time>
      </trkpt>
      <trkpt lat="45.37588" lon="6.13353">
        <ele>1305</ele>
        <time>2022-07-18T11:46:41Z</time>
      </trkpt>
      <trkpt lat="45.37569" lon="6.13381">
        <ele>1282.9</ele>
        <time>2022-07-18T11:47:15Z</time>
      </trkpt>
      <trkpt lat="45.37569" lon="6.13382">
        <ele>1283</ele>
        <time>2022-07-18T11:47:18Z</time>
      </trkpt>
      <trkpt lat="45.37557" lon="6.13401">
        <ele>1279</ele>
        <time>2022-07-18T11:47:39Z</time>
      </trkpt>
      <trkpt lat="45.37523" lon="6.13408">
        <ele>1263</ele>
        <time>2022-07-18T11:48:38Z</time>
      </trkpt>
      <trkpt lat="45.37508" lon="6.13365">
        <ele>1252.78</ele>
        <time>2022-07-18T11:49:15Z</time>
      </trkpt>
      <trkpt lat="45.37508" lon="6.13365">
        <ele>1252</ele>
        <time>2022-07-18T11:49:19Z</time>
      </trkpt>
      <trkpt lat="45.37512" lon="6.13385">
        <ele>1250</ele>
        <time>2022-07-18T11:49:37Z</time>
      </trkpt>
      <trkpt lat="45.37505" lon="6.13359">
        <ele>1230</ele>
        <time>2022-07-18T11:51:17Z</time>
      </trkpt>
      <trkpt lat="45.37496" lon="6.13279">
        <ele>1212</ele>
        <time>2022-07-18T11:52:30Z</time>
      </trkpt>
      <trkpt lat="45.37506" lon="6.13286">
        <ele>1187</ele>
        <time>2022-07-18T11:53:30Z</time>
      </trkpt>
      <trkpt lat="45.37494" lon="6.13253">
        <ele>1171</ele>
        <time>2022-07-18T11:54:40Z</time>
      </trkpt>
      <trkpt lat="45.37511" lon="6.13222">
        <ele>1165.43</ele>
        <time>2022-07-18T11:55:15Z</time>
      </trkpt>
      <trkpt lat="45.37511" lon="6.13222">
        <ele>1164</ele>
        <time>2022-07-18T11:55:18Z</time>
      </trkpt>
      <trkpt lat="45.37466" lon="6.13211">
        <ele>1151</ele>
        <time>2022-07-18T11:56:27Z</time>
      </trkpt>
      <trkpt lat="45.37454" lon="6.13209">
        <ele>1163.15</ele>
        <time>2022-07-18T11:57:15Z</time>
      </trkpt>
      <trkpt lat="45.37455" lon="6.13209">
        <ele>1162</ele>
        <time>2022-07-18T11:57:19Z</time>
      </trkpt>
      <trkpt lat="45.3744" lon="6.13195">
        <ele>1159</ele>
        <time>2022-07-18T11:57:27Z</time>
      </trkpt>
      <trkpt lat="45.37443" lon="6.13161">
        <ele>1143</ele>
        <time>2022-07-18T11:58:28Z</time>
      </trkpt>
      <trkpt lat="45.37371" lon="6.13153">
        <ele>1144.9</ele>
        <time>2022-07-18T12:00:15Z</time>
      </trkpt>
      <trkpt lat="45.37371" lon="6.13154">
        <ele>1145</ele>
        <time>2022-07-18T12:00:21Z</time>
      </trkpt>
      <trkpt lat="45.37336" lon="6.13169">
        <ele>1094</ele>
        <time>2022-07-18T12:01:21Z</time>
      </trkpt>
      <trkpt lat="45.37319" lon="6.13172">
        <ele>1094.95</ele>
        <time>2022-07-18T12:02:15Z</time>
      </trkpt>
      <trkpt lat="45.3732" lon="6.13172">
        <ele>1094</ele>
        <time>2022-07-18T12:02:21Z</time>
      </trkpt>
      <trkpt lat="45.37309" lon="6.13196">
        <ele>1101</ele>
        <time>2022-07-18T12:03:10Z</time>
      </trkpt>
      <trkpt lat="45.3723" lon="6.13256">
        <ele>1099.48</ele>
        <time>2022-07-18T12:04:15Z</time>
      </trkpt>
      <trkpt lat="45.37239" lon="6.13256">
        <ele>1100</ele>
        <time>2022-07-18T12:04:16Z</time>
      </trkpt>
      <trkpt lat="45.3723" lon="6.13257">
        <ele>1099</ele>
        <time>2022-07-18T12:04:22Z</time>
      </trkpt>
      <trkpt lat="45.37237" lon="6.13228">
        <ele>1098</ele>
        <time>2022-07-18T12:06:14Z</time>
      </trkpt>
      <trkpt lat="45.37236" lon="6.13215">
        <ele>1099.48</ele>
        <time>2022-07-18T12:06:15Z</time>
      </trkpt>
      <trkpt lat="45.37236" lon="6.13217">
        <ele>1099</ele>
        <time>2022-07-18T12:06:23Z</time>
      </trkpt>
      <trkpt lat="45.37249" lon="6.13152">
        <ele>1099</ele>
        <time>2022-07-18T12:07:13Z</time>
      </trkpt>
      <trkpt lat="45.37248" lon="6.13058">
        <ele>1104</ele>
        <time>2022-07-18T12:08:12Z</time>
      </trkpt>
      <trkpt lat="45.37242" lon="6.13026">
        <ele>1104.01</ele>
        <time>2022-07-18T12:08:30Z</time>
      </trkpt>
      <trkpt lat="45.37242" lon="6.13027">
        <ele>1105</ele>
        <time>2022-07-18T12:08:35Z</time>
      </trkpt>
      <trkpt lat="45.37237" lon="6.12971">
        <ele>1107</ele>
        <time>2022-07-18T12:09:12Z</time>
      </trkpt>
      <trkpt lat="45.37217" lon="6.12967">
        <ele>1155</ele>
        <time>2022-07-18T12:10:12Z</time>
      </trkpt>
      <trkpt lat="45.37215" lon="6.12969">
        <ele>1124.43</ele>
        <time>2022-07-18T12:10:30Z</time>
      </trkpt>
      <trkpt lat="45.37216" lon="6.12969">
        <ele>1125</ele>
        <time>2022-07-18T12:10:35Z</time>
      </trkpt>
      <trkpt lat="45.37196" lon="6.13012">
        <ele>1132</ele>
        <time>2022-07-18T12:12:03Z</time>
      </trkpt>
      <trkpt lat="45.37192" lon="6.1307">
        <ele>1138</ele>
        <time>2022-07-18T12:13:03Z</time>
      </trkpt>
      <trkpt lat="45.37173" lon="6.13114">
        <ele>1144.9</ele>
        <time>2022-07-18T12:14:00Z</time>
      </trkpt>
      <trkpt lat="45.37173" lon="6.13115">
        <ele>1146</ele>
        <time>2022-07-18T12:14:03Z</time>
      </trkpt>
      <trkpt lat="45.37173" lon="6.13115">
        <ele>1146</ele>
        <time>2022-07-18T12:14:03Z</time>
      </trkpt>
      <trkpt lat="45.37155" lon="6.13169">
        <ele>1150</ele>
        <time>2022-07-18T12:15:02Z</time>
      </trkpt>
      <trkpt lat="45.37135" lon="6.13205">
        <ele>1154.02</ele>
        <time>2022-07-18T12:16:00Z</time>
      </trkpt>
      <trkpt lat="45.37135" lon="6.13203">
        <ele>1155</ele>
        <time>2022-07-18T12:16:02Z</time>
      </trkpt>
      <trkpt lat="45.37135" lon="6.13205">
        <ele>1155</ele>
        <time>2022-07-18T12:16:03Z</time>
      </trkpt>
      <trkpt lat="45.37128" lon="6.13228">
        <ele>1161</ele>
        <time>2022-07-18T12:17:28Z</time>
      </trkpt>
      <trkpt lat="45.37084" lon="6.13225">
        <ele>1155</ele>
        <time>2022-07-18T12:18:58Z</time>
      </trkpt>
      <trkpt lat="45.37042" lon="6.13235">
        <ele>1195.2</ele>
        <time>2022-07-18T12:19:45Z</time>
      </trkpt>
      <trkpt lat="45.37043" lon="6.13237">
        <ele>1195</ele>
        <time>2022-07-18T12:19:54Z</time>
      </trkpt>
      <trkpt lat="45.37041" lon="6.13241">
        <ele>1189</ele>
        <time>2022-07-18T12:19:57Z</time>
      </trkpt>
      <trkpt lat="45.37067" lon="6.13186">
        <ele>1179</ele>
        <time>2022-07-18T12:20:56Z</time>
      </trkpt>
      <trkpt lat="45.37077" lon="6.13129">
        <ele>1186.03</ele>
        <time>2022-07-18T12:21:45Z</time>
      </trkpt>
      <trkpt lat="45.37077" lon="6.1313">
        <ele>1186</ele>
        <time>2022-07-18T12:21:55Z</time>
      </trkpt>
      <trkpt lat="45.37078" lon="6.13131">
        <ele>1186</ele>
        <time>2022-07-18T12:21:56Z</time>
      </trkpt>
      <trkpt lat="45.37087" lon="6.1307">
        <ele>1191</ele>
        <time>2022-07-18T12:22:55Z</time>
      </trkpt>
      <trkpt lat="45.37097" lon="6.13021">
        <ele>1199</ele>
        <time>2022-07-18T12:23:54Z</time>
      </trkpt>
      <trkpt lat="45.37076" lon="6.1296">
        <ele>1206.68</ele>
        <time>2022-07-18T12:24:45Z</time>
      </trkpt>
      <trkpt lat="45.37076" lon="6.1296">
        <ele>1206</ele>
        <time>2022-07-18T12:24:49Z</time>
      </trkpt>
      <trkpt lat="45.37086" lon="6.12954">
        <ele>1206</ele>
        <time>2022-07-18T12:24:54Z</time>
      </trkpt>
      <trkpt lat="45.37087" lon="6.12889">
        <ele>1211</ele>
        <time>2022-07-18T12:25:53Z</time>
      </trkpt>
      <trkpt lat="45.37082" lon="6.12859">
        <ele>1218.17</ele>
        <time>2022-07-18T12:26:45Z</time>
      </trkpt>
      <trkpt lat="45.37082" lon="6.12859">
        <ele>1218</ele>
        <time>2022-07-18T12:26:49Z</time>
      </trkpt>
      <trkpt lat="45.37082" lon="6.12853">
        <ele>1218</ele>
        <time>2022-07-18T12:27:41Z</time>
      </trkpt>
      <trkpt lat="45.37079" lon="6.1285">
        <ele>1217</ele>
        <time>2022-07-18T12:33:40Z</time>
      </trkpt>
      <trkpt lat="45.37084" lon="6.12879">
        <ele>1221</ele>
        <time>2022-07-18T12:34:48Z</time>
      </trkpt>
      <trkpt lat="45.37049" lon="6.12945">
        <ele>1239</ele>
        <time>2022-07-18T12:36:33Z</time>
      </trkpt>
      <trkpt lat="45.37026" lon="6.12999">
        <ele>1241.22</ele>
        <time>2022-07-18T12:37:30Z</time>
      </trkpt>
      <trkpt lat="45.37027" lon="6.13">
        <ele>1242</ele>
        <time>2022-07-18T12:37:32Z</time>
      </trkpt>
      <trkpt lat="45.37027" lon="6.13">
        <ele>1242</ele>
        <time>2022-07-18T12:37:33Z</time>
      </trkpt>
      <trkpt lat="45.36985" lon="6.13021">
        <ele>1250</ele>
        <time>2022-07-18T12:38:32Z</time>
      </trkpt>
      <trkpt lat="45.36958" lon="6.13059">
        <ele>1257.4</ele>
        <time>2022-07-18T12:39:30Z</time>
      </trkpt>
      <trkpt lat="45.36959" lon="6.13057">
        <ele>1258</ele>
        <time>2022-07-18T12:39:31Z</time>
      </trkpt>
      <trkpt lat="45.36958" lon="6.13059">
        <ele>1258</ele>
        <time>2022-07-18T12:39:33Z</time>
      </trkpt>
      <trkpt lat="45.36936" lon="6.1309">
        <ele>1266</ele>
        <time>2022-07-18T12:40:30Z</time>
      </trkpt>
      <trkpt lat="45.36874" lon="6.13162">
        <ele>1280.58</ele>
        <time>2022-07-18T12:42:15Z</time>
      </trkpt>
      <trkpt lat="45.36875" lon="6.13162">
        <ele>1280</ele>
        <time>2022-07-18T12:42:26Z</time>
      </trkpt>
      <trkpt lat="45.36873" lon="6.13161">
        <ele>1280</ele>
        <time>2022-07-18T12:42:27Z</time>
      </trkpt>
      <trkpt lat="45.3684" lon="6.13154">
        <ele>1252</ele>
        <time>2022-07-18T12:43:26Z</time>
      </trkpt>
      <trkpt lat="45.36849" lon="6.13138">
        <ele>1255.09</ele>
        <time>2022-07-18T12:44:15Z</time>
      </trkpt>
      <trkpt lat="45.3685" lon="6.13141">
        <ele>1256</ele>
        <time>2022-07-18T12:44:26Z</time>
      </trkpt>
      <trkpt lat="45.3685" lon="6.13139">
        <ele>1256</ele>
        <time>2022-07-18T12:44:27Z</time>
      </trkpt>
      <trkpt lat="45.36841" lon="6.13104">
        <ele>1297</ele>
        <time>2022-07-18T12:45:25Z</time>
      </trkpt>
      <trkpt lat="45.36867" lon="6.13079">
        <ele>1333</ele>
        <time>2022-07-18T12:46:25Z</time>
      </trkpt>
      <trkpt lat="45.36848" lon="6.13059">
        <ele>1323</ele>
        <time>2022-07-18T12:48:16Z</time>
      </trkpt>
      <trkpt lat="45.36802" lon="6.13087">
        <ele>1333</ele>
        <time>2022-07-18T12:49:17Z</time>
      </trkpt>
      <trkpt lat="45.36765" lon="6.13082">
        <ele>1338.86</ele>
        <time>2022-07-18T12:50:00Z</time>
      </trkpt>
      <trkpt lat="45.36765" lon="6.13082">
        <ele>1339</ele>
        <time>2022-07-18T12:50:14Z</time>
      </trkpt>
      <trkpt lat="45.36762" lon="6.13079">
        <ele>1340</ele>
        <time>2022-07-18T12:50:17Z</time>
      </trkpt>
      <trkpt lat="45.36784" lon="6.13031">
        <ele>1315</ele>
        <time>2022-07-18T12:51:16Z</time>
      </trkpt>
      <trkpt lat="45.36815" lon="6.1299">
        <ele>1371.71</ele>
        <time>2022-07-18T12:52:15Z</time>
      </trkpt>
      <trkpt lat="45.36815" lon="6.12992">
        <ele>1371</ele>
        <time>2022-07-18T12:52:16Z</time>
      </trkpt>
      <trkpt lat="45.36815" lon="6.12991">
        <ele>1370</ele>
        <time>2022-07-18T12:52:17Z</time>
      </trkpt>
      <trkpt lat="45.36829" lon="6.12956">
        <ele>1363</ele>
        <time>2022-07-18T12:54:10Z</time>
      </trkpt>
      <trkpt lat="45.36818" lon="6.12917">
        <ele>1407</ele>
        <time>2022-07-18T12:55:09Z</time>
      </trkpt>
      <trkpt lat="45.36806" lon="6.12859">
        <ele>1388.2</ele>
        <time>2022-07-18T12:56:00Z</time>
      </trkpt>
      <trkpt lat="45.36807" lon="6.1286">
        <ele>1388</ele>
        <time>2022-07-18T12:56:08Z</time>
      </trkpt>
      <trkpt lat="45.36808" lon="6.1286">
        <ele>1388</ele>
        <time>2022-07-18T12:56:09Z</time>
      </trkpt>
      <trkpt lat="45.36821" lon="6.12811">
        <ele>1393</ele>
        <time>2022-07-18T12:57:08Z</time>
      </trkpt>
      <trkpt lat="45.36848" lon="6.12763">
        <ele>1402.36</ele>
        <time>2022-07-18T12:58:00Z</time>
      </trkpt>
      <trkpt lat="45.36848" lon="6.12764">
        <ele>1401</ele>
        <time>2022-07-18T12:58:08Z</time>
      </trkpt>
      <trkpt lat="45.36835" lon="6.12783">
        <ele>1443</ele>
        <time>2022-07-18T12:59:06Z</time>
      </trkpt>
      <trkpt lat="45.36795" lon="6.12768">
        <ele>1409</ele>
        <time>2022-07-18T13:00:05Z</time>
      </trkpt>
      <trkpt lat="45.36744" lon="6.12788">
        <ele>1464.05</ele>
        <time>2022-07-18T13:01:00Z</time>
      </trkpt>
      <trkpt lat="45.36745" lon="6.12789">
        <ele>1463</ele>
        <time>2022-07-18T13:01:02Z</time>
      </trkpt>
      <trkpt lat="45.36746" lon="6.12785">
        <ele>1458</ele>
        <time>2022-07-18T13:01:04Z</time>
      </trkpt>
      <trkpt lat="45.36721" lon="6.12781">
        <ele>1431</ele>
        <time>2022-07-18T13:02:03Z</time>
      </trkpt>
      <trkpt lat="45.36692" lon="6.12782">
        <ele>1442.63</ele>
        <time>2022-07-18T13:03:00Z</time>
      </trkpt>
      <trkpt lat="45.36692" lon="6.12784">
        <ele>1444</ele>
        <time>2022-07-18T13:03:03Z</time>
      </trkpt>
      <trkpt lat="45.36692" lon="6.12784">
        <ele>1444</ele>
        <time>2022-07-18T13:03:03Z</time>
      </trkpt>
      <trkpt lat="45.3671" lon="6.12738">
        <ele>1447</ele>
        <time>2022-07-18T13:04:02Z</time>
      </trkpt>
      <trkpt lat="45.36783" lon="6.12681">
        <ele>1464.05</ele>
        <time>2022-07-18T13:05:45Z</time>
      </trkpt>
      <trkpt lat="45.36784" lon="6.12681">
        <ele>1464</ele>
        <time>2022-07-18T13:05:56Z</time>
      </trkpt>
      <trkpt lat="45.36784" lon="6.12683">
        <ele>1464</ele>
        <time>2022-07-18T13:05:57Z</time>
      </trkpt>
      <trkpt lat="45.36799" lon="6.12624">
        <ele>1472</ele>
        <time>2022-07-18T13:06:57Z</time>
      </trkpt>
      <trkpt lat="45.36816" lon="6.12589">
        <ele>1480.76</ele>
        <time>2022-07-18T13:07:45Z</time>
      </trkpt>
      <trkpt lat="45.36816" lon="6.12589">
        <ele>1480</ele>
        <time>2022-07-18T13:07:56Z</time>
      </trkpt>
      <trkpt lat="45.36817" lon="6.12589">
        <ele>1480</ele>
        <time>2022-07-18T13:07:57Z</time>
      </trkpt>
      <trkpt lat="45.36824" lon="6.12557">
        <ele>1487</ele>
        <time>2022-07-18T13:08:56Z</time>
      </trkpt>
      <trkpt lat="45.36866" lon="6.12582">
        <ele>1536</ele>
        <time>2022-07-18T13:09:55Z</time>
      </trkpt>
      <trkpt lat="45.36856" lon="6.12532">
        <ele>1460</ele>
        <time>2022-07-18T13:10:54Z</time>
      </trkpt>
      <trkpt lat="45.36824" lon="6.12559">
        <ele>1471</ele>
        <time>2022-07-18T13:11:54Z</time>
      </trkpt>
      <trkpt lat="45.36746" lon="6.12571">
        <ele>1496</ele>
        <time>2022-07-18T13:13:46Z</time>
      </trkpt>
      <trkpt lat="45.36702" lon="6.12561">
        <ele>1504.7</ele>
        <time>2022-07-18T13:14:30Z</time>
      </trkpt>
      <trkpt lat="45.36702" lon="6.12562">
        <ele>1504</ele>
        <time>2022-07-18T13:14:42Z</time>
      </trkpt>
      <trkpt lat="45.36704" lon="6.12559">
        <ele>1505</ele>
        <time>2022-07-18T13:14:46Z</time>
      </trkpt>
      <trkpt lat="45.36703" lon="6.1251">
        <ele>1515</ele>
        <time>2022-07-18T13:15:45Z</time>
      </trkpt>
      <trkpt lat="45.36712" lon="6.12488">
        <ele>1540.76</ele>
        <time>2022-07-18T13:16:30Z</time>
      </trkpt>
      <trkpt lat="45.36712" lon="6.12489">
        <ele>1542</ele>
        <time>2022-07-18T13:16:42Z</time>
      </trkpt>
      <trkpt lat="45.3678" lon="6.12485">
        <ele>1547</ele>
        <time>2022-07-18T13:17:39Z</time>
      </trkpt>
      <trkpt lat="45.36777" lon="6.12444">
        <ele>1555</ele>
        <time>2022-07-18T13:18:38Z</time>
      </trkpt>
      <trkpt lat="45.36773" lon="6.12385">
        <ele>1562.5</ele>
        <time>2022-07-18T13:19:30Z</time>
      </trkpt>
      <trkpt lat="45.36773" lon="6.12387">
        <ele>1563</ele>
        <time>2022-07-18T13:19:37Z</time>
      </trkpt>
      <trkpt lat="45.36774" lon="6.12387">
        <ele>1563</ele>
        <time>2022-07-18T13:19:37Z</time>
      </trkpt>
      <trkpt lat="45.36786" lon="6.12315">
        <ele>1560</ele>
        <time>2022-07-18T13:20:37Z</time>
      </trkpt>
      <trkpt lat="45.36776" lon="6.12254">
        <ele>1572.18</ele>
        <time>2022-07-18T13:21:30Z</time>
      </trkpt>
      <trkpt lat="45.36776" lon="6.12257">
        <ele>1570</ele>
        <time>2022-07-18T13:21:36Z</time>
      </trkpt>
      <trkpt lat="45.36777" lon="6.12254">
        <ele>1571</ele>
        <time>2022-07-18T13:21:38Z</time>
      </trkpt>
      <trkpt lat="45.3679" lon="6.12195">
        <ele>1579</ele>
        <time>2022-07-18T13:22:36Z</time>
      </trkpt>
      <trkpt lat="45.368" lon="6.12149">
        <ele>1601.31</ele>
        <time>2022-07-18T13:23:30Z</time>
      </trkpt>
      <trkpt lat="45.36799" lon="6.12152">
        <ele>1601</ele>
        <time>2022-07-18T13:23:35Z</time>
      </trkpt>
      <trkpt lat="45.36801" lon="6.12151">
        <ele>1602</ele>
        <time>2022-07-18T13:23:38Z</time>
      </trkpt>
      <trkpt lat="45.36819" lon="6.12103">
        <ele>1596</ele>
        <time>2022-07-18T13:24:34Z</time>
      </trkpt>
      <trkpt lat="45.36797" lon="6.12038">
        <ele>1600</ele>
        <time>2022-07-18T13:25:34Z</time>
      </trkpt>
      <trkpt lat="45.36772" lon="6.11958">
        <ele>1606.17</ele>
        <time>2022-07-18T13:26:15Z</time>
      </trkpt>
      <trkpt lat="45.36773" lon="6.11959">
        <ele>1605</ele>
        <time>2022-07-18T13:26:29Z</time>
      </trkpt>
      <trkpt lat="45.36768" lon="6.11961">
        <ele>1605</ele>
        <time>2022-07-18T13:26:33Z</time>
      </trkpt>
      <trkpt lat="45.36763" lon="6.11995">
        <ele>1623</ele>
        <time>2022-07-18T13:27:36Z</time>
      </trkpt>
      <trkpt lat="45.3672" lon="6.1199">
        <ele>1603.74</ele>
        <time>2022-07-18T13:28:30Z</time>
      </trkpt>
      <trkpt lat="45.3672" lon="6.11992">
        <ele>1604</ele>
        <time>2022-07-18T13:28:30Z</time>
      </trkpt>
      <trkpt lat="45.36725" lon="6.11985">
        <ele>1607</ele>
        <time>2022-07-18T13:29:26Z</time>
      </trkpt>
      <trkpt lat="45.36736" lon="6.11981">
        <ele>1619</ele>
        <time>2022-07-18T13:34:30Z</time>
      </trkpt>
      <trkpt lat="45.36725" lon="6.11986">
        <ele>1619</ele>
        <time>2022-07-18T13:40:29Z</time>
      </trkpt>
      <trkpt lat="45.36662" lon="6.12018">
        <ele>1653</ele>
        <time>2022-07-18T13:42:07Z</time>
      </trkpt>
      <trkpt lat="45.36627" lon="6.12046">
        <ele>1645.24</ele>
        <time>2022-07-18T13:43:00Z</time>
      </trkpt>
      <trkpt lat="45.36628" lon="6.12047">
        <ele>1646</ele>
        <time>2022-07-18T13:43:06Z</time>
      </trkpt>
      <trkpt lat="45.36628" lon="6.12047">
        <ele>1646</ele>
        <time>2022-07-18T13:43:07Z</time>
      </trkpt>
      <trkpt lat="45.36607" lon="6.12059">
        <ele>1655</ele>
        <time>2022-07-18T13:44:05Z</time>
      </trkpt>
      <trkpt lat="45.36598" lon="6.12052">
        <ele>1674.68</ele>
        <time>2022-07-18T13:45:00Z</time>
      </trkpt>
      <trkpt lat="45.36604" lon="6.12052">
        <ele>1675</ele>
        <time>2022-07-18T13:45:05Z</time>
      </trkpt>
      <trkpt lat="45.36599" lon="6.12053">
        <ele>1675</ele>
        <time>2022-07-18T13:45:07Z</time>
      </trkpt>
      <trkpt lat="45.3659" lon="6.12068">
        <ele>1668</ele>
        <time>2022-07-18T13:46:07Z</time>
      </trkpt>
      <trkpt lat="45.36554" lon="6.12075">
        <ele>1676</ele>
        <time>2022-07-18T13:47:07Z</time>
      </trkpt>
      <trkpt lat="45.36517" lon="6.12153">
        <ele>1721.58</ele>
        <time>2022-07-18T13:49:45Z</time>
      </trkpt>
      <trkpt lat="45.36517" lon="6.12155">
        <ele>1721</ele>
        <time>2022-07-18T13:49:57Z</time>
      </trkpt>
      <trkpt lat="45.36528" lon="6.12165">
        <ele>1698</ele>
        <time>2022-07-18T13:50:01Z</time>
      </trkpt>
      <trkpt lat="45.36545" lon="6.12227">
        <ele>1702</ele>
        <time>2022-07-18T13:51:07Z</time>
      </trkpt>
      <trkpt lat="45.36518" lon="6.12286">
        <ele>1686.99</ele>
        <time>2022-07-18T13:51:45Z</time>
      </trkpt>
      <trkpt lat="45.36519" lon="6.12288">
        <ele>1688</ele>
        <time>2022-07-18T13:51:57Z</time>
      </trkpt>
      <trkpt lat="45.36492" lon="6.12361">
        <ele>1687</ele>
        <time>2022-07-18T13:52:53Z</time>
      </trkpt>
      <trkpt lat="45.36446" lon="6.12406">
        <ele>1694.39</ele>
        <time>2022-07-18T13:53:45Z</time>
      </trkpt>
      <trkpt lat="45.36446" lon="6.12406">
        <ele>1694</ele>
        <time>2022-07-18T13:53:53Z</time>
      </trkpt>
      <trkpt lat="45.36447" lon="6.12408">
        <ele>1694</ele>
        <time>2022-07-18T13:53:58Z</time>
      </trkpt>
      <trkpt lat="45.36427" lon="6.12463">
        <ele>1722</ele>
        <time>2022-07-18T13:54:52Z</time>
      </trkpt>
      <trkpt lat="45.36372" lon="6.12514">
        <ele>1704.26</ele>
        <time>2022-07-18T13:55:45Z</time>
      </trkpt>
      <trkpt lat="45.36378" lon="6.1251">
        <ele>1706</ele>
        <time>2022-07-18T13:55:51Z</time>
      </trkpt>
      <trkpt lat="45.36372" lon="6.12515">
        <ele>1704</ele>
        <time>2022-07-18T13:55:58Z</time>
      </trkpt>
      <trkpt lat="45.36335" lon="6.12578">
        <ele>1708</ele>
        <time>2022-07-18T13:56:51Z</time>
      </trkpt>
      <trkpt lat="45.36306" lon="6.1266">
        <ele>1719.1</ele>
        <time>2022-07-18T13:57:45Z</time>
      </trkpt>
      <trkpt lat="45.36309" lon="6.12642">
        <ele>1701</ele>
        <time>2022-07-18T13:57:50Z</time>
      </trkpt>
      <trkpt lat="45.36307" lon="6.12661">
        <ele>1718</ele>
        <time>2022-07-18T13:57:59Z</time>
      </trkpt>
      <trkpt lat="45.36263" lon="6.12701">
        <ele>1719</ele>
        <time>2022-07-18T13:58:49Z</time>
      </trkpt>
      <trkpt lat="45.36213" lon="6.12747">
        <ele>1725</ele>
        <time>2022-07-18T13:59:49Z</time>
      </trkpt>
      <trkpt lat="45.36202" lon="6.12756">
        <ele>1726.54</ele>
        <time>2022-07-18T14:00:00Z</time>
      </trkpt>
      <trkpt lat="45.36203" lon="6.12756">
        <ele>1726</ele>
        <time>2022-07-18T14:00:00Z</time>
      </trkpt>
      <trkpt lat="45.36147" lon="6.12759">
        <ele>1733</ele>
        <time>2022-07-18T14:00:48Z</time>
      </trkpt>
      <trkpt lat="45.36079" lon="6.12761">
        <ele>1732</ele>
        <time>2022-07-18T14:01:47Z</time>
      </trkpt>
      <trkpt lat="45.36067" lon="6.12765">
        <ele>1733.98</ele>
        <time>2022-07-18T14:02:00Z</time>
      </trkpt>
      <trkpt lat="45.36067" lon="6.12766">
        <ele>1735</ele>
        <time>2022-07-18T14:02:01Z</time>
      </trkpt>
      <trkpt lat="45.36035" lon="6.12783">
        <ele>1739</ele>
        <time>2022-07-18T14:02:47Z</time>
      </trkpt>
      <trkpt lat="45.35983" lon="6.12826">
        <ele>1746</ele>
        <time>2022-07-18T14:03:59Z</time>
      </trkpt>
      <trkpt lat="45.35979" lon="6.12827">
        <ele>1738.94</ele>
        <time>2022-07-18T14:04:00Z</time>
      </trkpt>
      <trkpt lat="45.3598" lon="6.12828">
        <ele>1740</ele>
        <time>2022-07-18T14:04:02Z</time>
      </trkpt>
      <trkpt lat="45.35909" lon="6.12928">
        <ele>1736</ele>
        <time>2022-07-18T14:05:35Z</time>
      </trkpt>
      <trkpt lat="45.35896" lon="6.12966">
        <ele>1733.98</ele>
        <time>2022-07-18T14:06:00Z</time>
      </trkpt>
      <trkpt lat="45.35896" lon="6.12967">
        <ele>1735</ele>
        <time>2022-07-18T14:06:03Z</time>
      </trkpt>
      <trkpt lat="45.35873" lon="6.13013">
        <ele>1734</ele>
        <time>2022-07-18T14:06:35Z</time>
      </trkpt>
      <trkpt lat="45.35823" lon="6.13072">
        <ele>1740</ele>
        <time>2022-07-18T14:07:34Z</time>
      </trkpt>
      <trkpt lat="45.35794" lon="6.13078">
        <ele>1736.46</ele>
        <time>2022-07-18T14:08:00Z</time>
      </trkpt>
      <trkpt lat="45.35794" lon="6.13078">
        <ele>1737</ele>
        <time>2022-07-18T14:08:03Z</time>
      </trkpt>
      <trkpt lat="45.35759" lon="6.13084">
        <ele>1730</ele>
        <time>2022-07-18T14:08:34Z</time>
      </trkpt>
      <trkpt lat="45.35697" lon="6.1314">
        <ele>1720</ele>
        <time>2022-07-18T14:09:33Z</time>
      </trkpt>
      <trkpt lat="45.35668" lon="6.13166">
        <ele>1721.58</ele>
        <time>2022-07-18T14:10:00Z</time>
      </trkpt>
      <trkpt lat="45.35668" lon="6.13167">
        <ele>1722</ele>
        <time>2022-07-18T14:10:04Z</time>
      </trkpt>
      <trkpt lat="45.35636" lon="6.13175">
        <ele>1734</ele>
        <time>2022-07-18T14:10:32Z</time>
      </trkpt>
      <trkpt lat="45.35574" lon="6.13174">
        <ele>1742</ele>
        <time>2022-07-18T14:11:31Z</time>
      </trkpt>
      <trkpt lat="45.35544" lon="6.13142">
        <ele>1743.91</ele>
        <time>2022-07-18T14:12:00Z</time>
      </trkpt>
      <trkpt lat="45.35544" lon="6.13144">
        <ele>1743</ele>
        <time>2022-07-18T14:12:05Z</time>
      </trkpt>
      <trkpt lat="45.35517" lon="6.13125">
        <ele>1745</ele>
        <time>2022-07-18T14:12:31Z</time>
      </trkpt>
      <trkpt lat="45.35464" lon="6.13107">
        <ele>1747</ele>
        <time>2022-07-18T14:13:30Z</time>
      </trkpt>
      <trkpt lat="45.35425" lon="6.1308">
        <ele>1761.33</ele>
        <time>2022-07-18T14:14:00Z</time>
      </trkpt>
      <trkpt lat="45.35425" lon="6.1308">
        <ele>1760</ele>
        <time>2022-07-18T14:14:06Z</time>
      </trkpt>
      <trkpt lat="45.35401" lon="6.13076">
        <ele>1747</ele>
        <time>2022-07-18T14:14:30Z</time>
      </trkpt>
      <trkpt lat="45.35283" lon="6.12999">
        <ele>1758.84</ele>
        <time>2022-07-18T14:16:00Z</time>
      </trkpt>
      <trkpt lat="45.35285" lon="6.13001">
        <ele>1758</ele>
        <time>2022-07-18T14:16:04Z</time>
      </trkpt>
      <trkpt lat="45.35283" lon="6.13">
        <ele>1759</ele>
        <time>2022-07-18T14:16:06Z</time>
      </trkpt>
      <trkpt lat="45.35218" lon="6.13065">
        <ele>1743</ele>
        <time>2022-07-18T14:17:22Z</time>
      </trkpt>
      <trkpt lat="45.35172" lon="6.13114">
        <ele>1736.46</ele>
        <time>2022-07-18T14:18:00Z</time>
      </trkpt>
      <trkpt lat="45.35173" lon="6.13116">
        <ele>1737</ele>
        <time>2022-07-18T14:18:07Z</time>
      </trkpt>
      <trkpt lat="45.35158" lon="6.13123">
        <ele>1737</ele>
        <time>2022-07-18T14:18:21Z</time>
      </trkpt>
      <trkpt lat="45.35097" lon="6.13148">
        <ele>1726</ele>
        <time>2022-07-18T14:19:20Z</time>
      </trkpt>
      <trkpt lat="45.3505" lon="6.13187">
        <ele>1711.68</ele>
        <time>2022-07-18T14:20:00Z</time>
      </trkpt>
      <trkpt lat="45.35051" lon="6.13188">
        <ele>1712</ele>
        <time>2022-07-18T14:20:08Z</time>
      </trkpt>
      <trkpt lat="45.35037" lon="6.13189">
        <ele>1714</ele>
        <time>2022-07-18T14:20:20Z</time>
      </trkpt>
      <trkpt lat="45.34996" lon="6.13217">
        <ele>1704</ele>
        <time>2022-07-18T14:21:19Z</time>
      </trkpt>
      <trkpt lat="45.34979" lon="6.13207">
        <ele>1664.85</ele>
        <time>2022-07-18T14:22:00Z</time>
      </trkpt>
      <trkpt lat="45.3498" lon="6.13209">
        <ele>1666</ele>
        <time>2022-07-18T14:22:09Z</time>
      </trkpt>
      <trkpt lat="45.34992" lon="6.1324">
        <ele>1696</ele>
        <time>2022-07-18T14:22:20Z</time>
      </trkpt>
      <trkpt lat="45.34974" lon="6.13211">
        <ele>1715</ele>
        <time>2022-07-18T14:26:10Z</time>
      </trkpt>
      <trkpt lat="45.35005" lon="6.13236">
        <ele>1667</ele>
        <time>2022-07-18T14:27:10Z</time>
      </trkpt>
      <trkpt lat="45.34969" lon="6.13211">
        <ele>1672</ele>
        <time>2022-07-18T14:30:06Z</time>
      </trkpt>
      <trkpt lat="45.34987" lon="6.13239">
        <ele>1608</ele>
        <time>2022-07-18T14:31:57Z</time>
      </trkpt>
      <trkpt lat="45.34973" lon="6.13204">
        <ele>1694</ele>
        <time>2022-07-18T14:33:00Z</time>
      </trkpt>
      <trkpt lat="45.34964" lon="6.13207">
        <ele>1687</ele>
        <time>2022-07-18T14:34:05Z</time>
      </trkpt>
      <trkpt lat="45.34853" lon="6.13243">
        <ele>1657.49</ele>
        <time>2022-07-18T14:35:45Z</time>
      </trkpt>
      <trkpt lat="45.34853" lon="6.13244">
        <ele>1658</ele>
        <time>2022-07-18T14:35:56Z</time>
      </trkpt>
      <trkpt lat="45.34853" lon="6.13244">
        <ele>1658</ele>
        <time>2022-07-18T14:35:57Z</time>
      </trkpt>
      <trkpt lat="45.34775" lon="6.13268">
        <ele>1686</ele>
        <time>2022-07-18T14:36:56Z</time>
      </trkpt>
      <trkpt lat="45.34714" lon="6.13297">
        <ele>1672.23</ele>
        <time>2022-07-18T14:37:45Z</time>
      </trkpt>
      <trkpt lat="45.34715" lon="6.13297">
        <ele>1673</ele>
        <time>2022-07-18T14:37:56Z</time>
      </trkpt>
      <trkpt lat="45.34714" lon="6.13298">
        <ele>1673</ele>
        <time>2022-07-18T14:37:57Z</time>
      </trkpt>
      <trkpt lat="45.34654" lon="6.13297">
        <ele>1647</ele>
        <time>2022-07-18T14:38:55Z</time>
      </trkpt>
      <trkpt lat="45.34569" lon="6.13273">
        <ele>1633</ele>
        <time>2022-07-18T14:40:00Z</time>
      </trkpt>
      <trkpt lat="45.34569" lon="6.13273">
        <ele>1633</ele>
        <time>2022-07-18T14:40:12Z</time>
      </trkpt>
      <trkpt lat="45.3457" lon="6.13273">
        <ele>1633</ele>
        <time>2022-07-18T14:40:12Z</time>
      </trkpt>
      <trkpt lat="45.34472" lon="6.13219">
        <ele>1606</ele>
        <time>2022-07-18T14:41:45Z</time>
      </trkpt>
      <trkpt lat="45.34444" lon="6.13198">
        <ele>1598.87</ele>
        <time>2022-07-18T14:42:00Z</time>
      </trkpt>
      <trkpt lat="45.34445" lon="6.13199">
        <ele>1599</ele>
        <time>2022-07-18T14:42:12Z</time>
      </trkpt>
      <trkpt lat="45.34406" lon="6.13197">
        <ele>1594</ele>
        <time>2022-07-18T14:42:45Z</time>
      </trkpt>
      <trkpt lat="45.34378" lon="6.13183">
        <ele>1577</ele>
        <time>2022-07-18T14:43:44Z</time>
      </trkpt>
      <trkpt lat="45.34383" lon="6.13187">
        <ele>1589.15</ele>
        <time>2022-07-18T14:44:00Z</time>
      </trkpt>
      <trkpt lat="45.34383" lon="6.13189">
        <ele>1589</ele>
        <time>2022-07-18T14:44:13Z</time>
      </trkpt>
      <trkpt lat="45.34383" lon="6.13194">
        <ele>1589.15</ele>
        <time>2022-07-18T14:45:30Z</time>
      </trkpt>
    </trkseg>
  </trk>
</gpx>